FW7617 Weather Reports


Display with metric or nautical units.
time (UTC)temp
F
wind
direction
speed
MPH
gust
MPH
rain 1hr
in
rain 24hr
in
rain mn
in
humidity
%
barometer
mb
20210803064018 56 0.0 0.0 0.00 0.00 0.00 98 1019.3
20210803063019 56 0.0 0.0 0.00 0.00 0.00 98 1019.3
20210803062018 56 73 0.0 2.0 0.00 0.00 0.00 98 1019.3
20210803061019 56 0.0 0.0 0.00 0.00 0.00 98 1019.2
20210803060016 57 0.0 0.0 0.00 0.00 0.00 98 1019.1
20210803055019 57 0.0 0.0 0.00 0.00 0.00 98 1019.2
20210803054020 57 74 0.0 1.0 0.00 0.00 0.00 97 1019.3
20210803053016 57 332 0.0 1.0 0.00 0.00 0.00 96 1019.4
20210803052017 57 0.0 0.0 0.00 0.00 0.00 96 1019.3
20210803051017 58 30 0.0 1.0 0.00 0.00 0.00 95 1019.4
20210803050020 58 0.0 0.0 0.00 0.00 0.00 95 1019.4
20210803045017 58 61 0.0 1.0 0.00 0.00 0.00 94 1019.5
20210803044017 59 331 0.0 1.0 0.00 0.00 0.00 93 1019.4
20210803043017 59 0.0 0.0 0.00 0.00 0.00 91 1019.2
20210803042018 60 0.0 0.0 0.00 0.00 0.00 90 1019.0
20210803041018 60 332 0.0 1.0 0.00 0.00 0.00 88 1018.8
20210803040018 60 0.0 0.0 0.00 0.00 0.00 87 1018.8
20210803035018 61 0.0 0.0 0.00 0.00 0.00 86 1018.6
20210803034018 60 280 0.0 1.0 0.00 0.00 0.00 85 1018.5
20210803033016 60 238 0.0 2.0 0.00 0.00 0.00 86 1018.4
20210803032019 60 329 0.0 1.0 0.00 0.00 0.00 85 1018.3
20210803031019 61 250 0.0 2.0 0.00 0.00 0.00 86 1018.2
20210803030017 61 318 0.0 2.0 0.00 0.00 0.00 83 1018.2
20210803025019 61 352 0.0 1.0 0.00 0.00 0.00 84 1018.1
20210803024019 62 334 0.0 2.0 0.00 0.00 0.00 79 1018.0
20210803023019 62 328 1.0 2.0 0.00 0.00 0.00 83 1018.0
20210803022017 63 335 0.0 1.0 0.00 0.00 0.00 77 1018.0
20210803021017 63 331 0.0 1.0 0.00 0.00 0.00 77 1018.0
20210803020018 63 320 0.0 1.0 0.00 0.00 0.00 79 1017.8
20210803015020 64 331 1.0 2.0 0.00 0.00 0.00 76 1017.7
20210803014018 64 329 0.0 1.0 0.00 0.00 0.00 76 1017.6
20210803013018 65 334 1.0 2.0 0.00 0.00 0.00 75 1017.5
20210803012018 65 337 1.0 2.0 0.00 0.00 0.00 77 1017.5
20210803011018 65 325 1.0 2.0 0.00 0.00 0.00 77 1017.3
20210803010019 66 335 1.0 2.0 0.00 0.00 0.00 77 1017.2
20210803005019 67 334 1.0 2.0 0.00 0.00 0.00 76 1017.0
20210803004019 68 330 1.0 2.0 0.00 0.00 0.00 71 1016.8
20210803003019 69 324 1.0 2.0 0.00 0.00 0.00 71 1016.6
20210803002017 70 327 1.0 2.0 0.00 0.00 0.00 64 1016.5
20210803001019 72 331 1.0 2.0 0.00 0.00 0.00 60 1016.3
20210803000020 73 337 1.0 2.0 0.00 0.00 0.00 57 1016.2
20210802235017 74 320 0.0 1.0 0.00 0.00 0.00 55 1016.1
20210802234017 75 328 1.0 2.0 0.00 0.00 0.00 53 1016.0
20210802233017 75 341 1.0 4.0 0.00 0.01 0.00 51 1015.9
20210802232020 76 351 1.0 4.0 0.00 0.01 0.00 50 1015.7
20210802231018 76 340 2.0 4.0 0.00 0.01 0.00 50 1015.6
20210802230018 76 4 1.0 5.0 0.00 0.03 0.00 51 1015.6
20210802225018 77 355 1.0 3.0 0.00 0.03 0.00 49 1015.5
20210802224018 77 214 1.0 4.0 0.00 0.03 0.00 49 1015.4
20210802223018 77 356 1.0 4.0 0.00 0.03 0.00 48 1015.3
20210802222016 78 278 2.0 5.0 0.00 0.03 0.00 47 1015.3
20210802221018 78 336 2.0 6.0 0.00 0.03 0.00 49 1015.2
20210802220019 79 354 2.0 5.0 0.00 0.03 0.00 48 1015.1
20210802215019 80 335 1.0 3.0 0.00 0.03 0.00 50 1015.2
20210802214016 81 224 1.0 3.0 0.00 0.03 0.00 47 1015.0
20210802213017 81 248 1.0 4.0 0.00 0.03 0.00 48 1015.0
20210802212020 81 327 2.0 4.0 0.00 0.03 0.00 47 1014.8
20210802211020 82 265 2.0 5.0 0.00 0.03 0.00 47 1014.9
20210802210017 81 300 1.0 4.0 0.00 0.03 0.00 48 1015.0
20210802205017 81 333 1.0 5.0 0.00 0.03 0.00 48 1014.9
20210802204018 81 234 3.0 5.0 0.00 0.03 0.00 47 1014.8
20210802203018 82 322 2.0 5.0 0.00 0.03 0.00 47 1014.8
20210802202018 81 238 3.0 6.0 0.00 0.03 0.00 48 1014.7
20210802201018 81 332 2.0 5.0 0.00 0.03 0.00 47 1014.7
20210802200018 80 352 2.0 6.0 0.00 0.03 0.00 48 1014.8
20210802195018 80 220 2.0 6.0 0.00 0.03 0.00 49 1014.9
20210802194018 80 4 2.0 5.0 0.00 0.03 0.00 49 1014.9
20210802193019 78 254 2.0 7.0 0.00 0.03 0.00 51 1015.0
20210802192019 77 42 2.0 10.0 0.00 0.03 0.00 54 1015.0
20210802191019 77 0 2.0 5.0 0.00 0.03 0.00 53 1015.0
20210802190016 77 345 3.0 7.0 0.00 0.03 0.00 50 1014.9
20210802185020 77 293 2.0 7.0 0.00 0.03 0.00 51 1014.9
20210802184020 76 12 4.0 8.0 0.00 0.03 0.00 53 1014.9
20210802183017 77 47 3.0 6.0 0.00 0.03 0.00 52 1014.9
20210802182018 76 38 4.0 9.0 0.00 0.03 0.00 54 1014.8
20210802181017 77 1 3.0 8.0 0.00 0.03 0.00 53 1014.8
20210802180018 76 358 3.0 9.0 0.00 0.03 0.00 54 1014.8
20210802175018 76 22 4.0 9.0 0.00 0.03 0.00 55 1014.8
20210802174018 77 11 2.0 6.0 0.00 0.03 0.00 53 1014.9
20210802173018 76 336 3.0 7.0 0.00 0.03 0.00 56 1014.9
20210802172018 76 250 3.0 8.0 0.00 0.05 0.00 56 1014.8
20210802171019 77 357 4.0 8.0 0.00 0.07 0.00 55 1014.8
20210802170018 76 348 4.0 10.0 0.00 0.09 0.00 56 1014.9
20210802165019 76 340 2.0 8.0 0.00 0.09 0.00 57 1014.9
20210802164019 75 347 4.0 8.0 0.00 0.09 0.00 57 1014.9
20210802163016 75 331 4.0 9.0 0.00 0.09 0.00 58 1015.0
20210802162016 74 277 3.0 8.0 0.00 0.09 0.00 58 1014.9
20210802161020 75 353 2.0 6.0 0.00 0.09 0.00 59 1014.8
20210802160020 75 328 4.0 8.0 0.00 0.09 0.00 60 1014.8
20210802155017 75 355 3.0 8.0 0.00 0.09 0.00 61 1014.9
20210802154017 74 248 3.0 9.0 0.00 0.09 0.00 63 1014.9
20210802153017 74 231 3.0 6.0 0.00 0.09 0.00 64 1014.9
20210802152017 74 325 3.0 9.0 0.00 0.09 0.00 63 1014.9
20210802151019 73 310 3.0 9.0 0.00 0.09 0.00 64 1015.0
20210802150018 73 313 3.0 7.0 0.00 0.09 0.00 66 1015.0
20210802145018 72 253 3.0 8.0 0.00 0.09 0.00 69 1015.0
20210802144018 72 233 2.0 7.0 0.00 0.09 0.00 70 1014.9
20210802143018 72 349 2.0 5.0 0.00 0.09 0.00 70 1014.9
20210802142019 71 345 3.0 8.0 0.00 0.09 0.00 71 1014.7
20210802141019 71 348 2.0 7.0 0.00 0.09 0.00 72 1014.7
20210802140020 71 320 2.0 6.0 0.00 0.09 0.00 73 1014.6
20210802135019 70 272 2.0 6.0 0.00 0.09 0.00 75 1014.6
20210802134019 70 256 2.0 6.0 0.00 0.09 0.00 78 1014.7
20210802133020 69 270 2.0 6.0 0.00 0.09 0.00 79 1014.8
20210802132017 69 245 1.0 3.0 0.00 0.09 0.00 80 1014.8
20210802131017 68 241 2.0 3.0 0.00 0.09 0.00 81 1014.8
20210802130020 68 282 1.0 3.0 0.00 0.09 0.00 82 1014.8
20210802125020 67 330 1.0 2.0 0.00 0.09 0.00 86 1014.7
20210802124018 66 355 1.0 4.0 0.00 0.09 0.00 86 1014.6
20210802123017 65 313 1.0 3.0 0.00 0.09 0.00 88 1014.6
20210802122018 64 351 1.0 4.0 0.00 0.09 0.00 90 1014.6
20210802121018 63 270 1.0 3.0 0.00 0.09 0.00 90 1014.6
20210802120018 62 343 1.0 3.0 0.00 0.09 0.00 93 1014.4
20210802115018 61 343 1.0 2.0 0.00 0.09 0.00 96 1014.3
20210802114019 60 350 1.0 3.0 0.00 0.09 0.00 100 1014.2
20210802113019 59 351 0.0 2.0 0.00 0.09 0.00 100 1014.1
20210802112016 58 348 0.0 2.0 0.00 0.09 0.00 100 1013.8
20210802111019 57 339 0.0 1.0 0.00 0.09 0.00 100 1013.8
20210802110019 57 334 0.0 1.0 0.00 0.09 0.00 100 1013.7
20210802105019 57 242 0.0 1.0 0.00 0.09 0.00 100 1013.6
20210802104016 56 346 0.0 2.0 0.00 0.09 0.00 100 1013.5
20210802103017 56 316 0.0 1.0 0.00 0.09 0.00 100 1013.4
20210802102020 57 0.0 0.0 0.00 0.09 0.00 100 1013.3
20210802101020 57 308 0.0 1.0 0.00 0.09 0.00 100 1013.2
20210802100017 57 0.0 0.0 0.00 0.09 0.00 100 1013.0
20210802095018 57 313 0.0 2.0 0.00 0.09 0.00 100 1012.9
20210802094018 57 342 0.0 1.0 0.00 0.09 0.00 100 1012.9
20210802093018 57 0.0 0.0 0.00 0.09 0.00 100 1012.8
20210802092018 57 0.0 0.0 0.00 0.09 0.00 100 1012.7
20210802091018 57 306 0.0 2.0 0.00 0.09 0.00 100 1012.6
20210802090019 58 35 0.0 1.0 0.00 0.09 0.00 100 1012.5
20210802085016 58 325 1.0 2.0 0.00 0.09 0.00 100 1012.4
20210802084016 58 333 0.0 2.0 0.00 0.09 0.00 100 1012.3
20210802083019 58 318 0.0 2.0 0.00 0.09 0.00 100 1012.1
20210802082019 58 320 1.0 2.0 0.00 0.09 0.00 100 1012.1
20210802081019 58 0.0 0.0 0.00 0.09 0.00 100 1011.9
20210802080017 58 330 1.0 4.0 0.00 0.09 0.00 100 1011.9
20210802075017 59 315 1.0 2.0 0.00 0.09 0.00 100 1011.8
20210802074020 59 0.0 0.0 0.00 0.09 0.00 100 1011.8
20210802073017 59 319 0.0 3.0 0.00 0.09 0.00 100 1011.6
20210802072017 59 318 1.0 2.0 0.00 0.09 0.00 100 1011.6
20210802071018 59 321 1.0 2.0 0.00 0.09 0.00 100 1011.7
20210802070017 59 0.0 0.0 0.00 0.09 0.00 100 1011.6
20210802065018 60 328 1.0 2.0 0.00 0.09 0.00 100 1011.6